Location: La Sioule Rivi�re
(46.3664°N, 3.3197°E)
Time: 12:55:28
(UTC+00:00)

NOSS 3-3 (C) - Pass Details

Date: 29 October 2020
Orbit: 825 x 1387 km, 63.4° (Epoch: 22 November)

Event Time Altitude Azimuth Distance (km) Brightness Sun altitude
Rises 18:03:00 0° 206° (SSW) 3,397 7.3 -15.5°
Reaches altitude 10° 18:05:22 10° 203° (SSW) 2,502 6.5 -15.9°
Maximum altitude 18:11:04 65° 123° (ESE) 1,017 3.9 -16.9°
Enters shadow 18:16:14 16° 45° (NE) 2,352 5.6 -17.8°
